TimeCDT,TemperatureF,Dew PointF,Humidity,Sea Level PressureIn,VisibilityMPH,Wind Direction,Wind SpeedMPH,Gust SpeedMPH,PrecipitationIn,Events,Conditions,WindDirDegrees,DateUTC
12:15 AM,26.6,14.0,59,30.28,10.0,Calm,Calm,-,N/A,,Clear,0,2012-10-07 05:15:00
12:35 AM,28.4,17.6,64,30.28,10.0,Calm,Calm,-,N/A,,Clear,0,2012-10-07 05:35:00
12:55 AM,28.4,17.6,64,30.28,10.0,SW,3.5,-,N/A,,Clear,220,2012-10-07 05:55:00
1:15 AM,28.4,15.8,59,30.27,10.0,SW,3.5,-,N/A,,Clear,220,2012-10-07 06:15:00
1:35 AM,30.2,15.8,55,30.27,10.0,Calm,Calm,-,N/A,,Clear,0,2012-10-07 06:35:00
1:55 AM,28.4,15.8,59,30.27,10.0,Calm,Calm,-,N/A,,Clear,0,2012-10-07 06:55:00
2:15 AM,28.4,15.8,59,30.26,10.0,Calm,Calm,-,N/A,,Clear,0,2012-10-07 07:15:00
2:35 AM,26.6,14.0,59,30.26,10.0,SW,3.5,-,N/A,,Clear,220,2012-10-07 07:35:00
2:55 AM,26.6,15.8,64,30.26,10.0,Calm,Calm,-,N/A,,Clear,0,2012-10-07 07:55:00
3:15 AM,24.8,15.8,69,30.25,10.0,Calm,Calm,-,N/A,,Clear,0,2012-10-07 08:15:00
3:35 AM,26.6,17.6,69,30.24,10.0,Calm,Calm,-,N/A,,Clear,0,2012-10-07 08:35:00
3:55 AM,26.6,17.6,69,30.24,10.0,Calm,Calm,-,N/A,,Clear,0,2012-10-07 08:55:00
4:15 AM,24.8,17.6,74,30.23,10.0,Calm,Calm,-,N/A,,Clear,0,2012-10-07 09:15:00
4:35 AM,24.8,17.6,74,30.23,10.0,SSW,3.5,-,N/A,,Clear,210,2012-10-07 09:35:00
4:55 AM,26.6,17.6,69,30.23,10.0,Calm,Calm,-,N/A,,Clear,0,2012-10-07 09:55:00
5:15 AM,24.8,17.6,74,30.22,10.0,Calm,Calm,-,N/A,,Clear,0,2012-10-07 10:15:00
5:35 AM,23.0,19.4,86,30.21,10.0,Calm,Calm,-,N/A,,Clear,0,2012-10-07 10:35:00
5:55 AM,23.0,19.4,86,30.21,10.0,Calm,Calm,-,N/A,,Clear,0,2012-10-07 10:55:00
6:15 AM,23.0,19.4,86,30.21,10.0,Calm,Calm,-,N/A,,Clear,0,2012-10-07 11:15:00
6:55 AM,21.2,19.4,93,30.20,10.0,SE,4.6,-,N/A,,Clear,140,2012-10-07 11:55:00
7:15 AM,21.2,21.2,100,30.19,10.0,SSE,4.6,-,N/A,,Clear,150,2012-10-07 12:15:00
7:35 AM,21.2,17.6,86,30.19,10.0,Calm,Calm,-,N/A,,Clear,0,2012-10-07 12:35:00
7:55 AM,21.2,19.4,93,30.19,10.0,Calm,Calm,-,N/A,,Clear,0,2012-10-07 12:55:00
8:15 AM,24.8,21.2,86,30.19,10.0,Calm,Calm,-,N/A,,Clear,0,2012-10-07 13:15:00
8:55 AM,30.2,26.6,86,30.18,10.0,Calm,Calm,-,N/A,,Clear,0,2012-10-07 13:55:00
9:15 AM,37.4,30.2,75,30.17,10.0,SW,9.2,-,N/A,,Clear,220,2012-10-07 14:15:00
9:35 AM,39.2,28.4,65,30.17,10.0,SW,9.2,-,N/A,,Clear,220,2012-10-07 14:35:00
9:55 AM,39.2,28.4,65,30.16,10.0,SW,9.2,-,N/A,,Clear,230,2012-10-07 14:55:00
10:15 AM,41.0,28.4,61,30.16,10.0,SSW,10.4,-,N/A,,Clear,210,2012-10-07 15:15:00
10:35 AM,42.8,28.4,57,30.15,10.0,SW,11.5,-,N/A,,Clear,220,2012-10-07 15:35:00
10:55 AM,44.6,28.4,53,30.15,10.0,SW,12.7,-,N/A,,Clear,220,2012-10-07 15:55:00
11:15 AM,44.6,26.6,49,30.14,10.0,SSW,12.7,-,N/A,,Clear,210,2012-10-07 16:15:00
11:35 AM,48.2,26.6,43,30.13,10.0,SW,12.7,-,N/A,,Clear,230,2012-10-07 16:35:00
11:55 AM,48.2,26.6,43,30.12,10.0,WSW,12.7,-,N/A,,Clear,240,2012-10-07 16:55:00
12:15 PM,50.0,26.6,40,30.11,10.0,SW,15.0,-,N/A,,Clear,230,2012-10-07 17:15:00
12:35 PM,51.8,26.6,38,30.09,10.0,SSW,16.1,20.7,N/A,,Clear,210,2012-10-07 17:35:00
12:55 PM,51.8,24.8,35,30.08,10.0,SW,13.8,-,N/A,,Clear,220,2012-10-07 17:55:00
1:15 PM,53.6,21.2,28,30.07,10.0,WSW,15.0,21.9,N/A,,Clear,240,2012-10-07 18:15:00
1:35 PM,53.6,23.0,30,30.05,10.0,WSW,15.0,19.6,N/A,,Clear,240,2012-10-07 18:35:00
1:55 PM,55.4,24.8,31,30.04,10.0,WSW,12.7,-,N/A,,Clear,240,2012-10-07 18:55:00
2:15 PM,55.4,21.2,26,30.02,10.0,WSW,13.8,-,N/A,,Clear,240,2012-10-07 19:15:00
2:35 PM,57.2,21.2,25,30.01,10.0,SW,15.0,23.0,N/A,,Clear,220,2012-10-07 19:35:00
2:55 PM,57.2,19.4,23,29.99,10.0,SW,17.3,-,N/A,,Clear,220,2012-10-07 19:55:00
3:15 PM,57.2,19.4,23,29.98,10.0,WSW,15.0,21.9,N/A,,Clear,240,2012-10-07 20:15:00
3:35 PM,59.0,19.4,22,29.97,10.0,WSW,13.8,19.6,N/A,,Clear,240,2012-10-07 20:35:00
3:55 PM,59.0,17.6,20,29.96,10.0,WSW,15.0,-,N/A,,Clear,250,2012-10-07 20:55:00
4:15 PM,60.8,17.6,19,29.96,10.0,SW,16.1,21.9,N/A,,Clear,220,2012-10-07 21:15:00
4:35 PM,60.8,17.6,19,29.95,10.0,WSW,12.7,-,N/A,,Clear,250,2012-10-07 21:35:00
4:55 PM,60.8,17.6,19,29.94,10.0,WSW,13.8,21.9,N/A,,Clear,250,2012-10-07 21:55:00
5:15 PM,60.8,15.8,17,29.93,10.0,SW,17.3,-,N/A,,Clear,230,2012-10-07 22:15:00
5:35 PM,60.8,15.8,17,29.93,10.0,SW,12.7,-,N/A,,Clear,230,2012-10-07 22:35:00
5:55 PM,60.8,15.8,17,29.93,10.0,WSW,9.2,19.6,N/A,,Clear,250,2012-10-07 22:55:00
6:15 PM,60.8,14.0,16,29.92,10.0,WSW,12.7,-,N/A,,Clear,240,2012-10-07 23:15:00
6:35 PM,57.2,12.2,17,29.92,10.0,WSW,8.1,-,N/A,,Clear,250,2012-10-07 23:35:00
6:55 PM,55.4,12.2,18,29.92,10.0,West,6.9,-,N/A,,Clear,280,2012-10-07 23:55:00
7:15 PM,55.4,10.4,17,29.92,10.0,WNW,5.8,-,N/A,,Clear,290,2012-10-08 00:15:00
7:55 PM,51.8,12.2,21,29.92,10.0,WSW,3.5,-,N/A,,Clear,240,2012-10-08 00:55:00
8:15 PM,50.0,12.2,22,29.92,10.0,WSW,4.6,-,N/A,,Clear,240,2012-10-08 01:15:00
8:35 PM,48.2,14.0,25,29.92,10.0,Calm,Calm,-,N/A,,Clear,0,2012-10-08 01:35:00
8:55 PM,44.6,12.2,27,29.92,10.0,South,3.5,-,N/A,,Clear,180,2012-10-08 01:55:00
9:15 PM,48.2,17.6,30,29.92,10.0,South,5.8,-,N/A,,Clear,190,2012-10-08 02:15:00
9:35 PM,48.2,15.8,27,29.92,10.0,SSW,5.8,-,N/A,,Clear,210,2012-10-08 02:35:00
9:55 PM,46.4,19.4,34,29.92,10.0,SSW,10.4,-,N/A,,Mostly Cloudy,210,2012-10-08 02:55:00
10:15 PM,48.2,19.4,32,29.91,10.0,SW,9.2,-,N/A,,Overcast,220,2012-10-08 03:15:00
10:35 PM,46.4,19.4,34,29.91,10.0,SSW,11.5,-,N/A,,Mostly Cloudy,210,2012-10-08 03:35:00
10:55 PM,46.4,21.2,37,29.90,10.0,SSW,11.5,-,N/A,,Clear,210,2012-10-08 03:55:00
11:15 PM,46.4,21.2,37,29.90,10.0,SSW,10.4,-,N/A,,Clear,210,2012-10-08 04:15:00
11:35 PM,46.4,21.2,37,29.90,10.0,SW,9.2,-,N/A,,Clear,220,2012-10-08 04:35:00
11:55 PM,46.4,21.2,37,29.89,10.0,SW,10.4,-,N/A,,Clear,220,2012-10-08 04:55:00